SL-8 R/B

Satellite information

Favourite Embed

Satellite Type and Status

ROCKET BODYIN ORBIT

Key statistics

Satellite SL-8 R/B at a glance.

Uptime

19959

Days in orbit

Revolutions

≈ 14.4

Per day

Orbit

LEO

Low Earth Orbit

Inclination

74.0

Latest

Satellite identification and parameters

Extended collection of information and parameters for SL-8 R/B.

Object identification

Identified? True

Debris? False

Object name: SL-8 R/B

International designator: 1971-035B

Object number (NORAD): 5175

Object ID (CCSDS): 5175

Country: COMMONWEALTH OF INDEPENDENT STATES (CIS)

Current information (Y/N): Y

RCS size: LARGE

Orbital parameters

Period: 100.041 minutes

Inclination: 74.0484 deg

SMA: 7138.581 km

Apoapsis: 780.645 km

Periapsis: 740.247 km

RAAN: 261.3718 deg

Eccentricy: 0.00282961

Argument of periapsis: 60.5824 deg

Mean anomaly: 299.815 deg

Mean motion: 14.39411358 rev/day

Mean motion (dot): 0.00000449 rev/day2

B* drag term: 0.00015203938 1/REarth

Two-line elements (TLE)

Creation date: Dec. 12, 2025, 10:14 a.m.

Reference frame: TEME

Reference center: EARTH

Epoch: Dec. 12, 2025, 5:44 a.m. UTC

TLE line 0: 0 SL-8 R/B

TLE line 1: 1 05175U 71035B 25346.23939550 .00000449 00000-0 15204-3 0 9992

TLE line 2: 2 05175 74.0484 261.3718 0028296 60.5824 299.8150 14.39411358860363

Live tracking on map

Real-time ground track for satellite SL-8 R/B.

In-orbit conjunctions

A list of the most updated potential collisions computed for object SL-8 R/B.

Target Orbit TCA Probability of collision Miss distance Type
IRIDIUM 33 DEB LEO 2025-11-23 06:55:14 0.0001101361 267.0 (m) DEBRIS
CZ-6A DEB SSO 2025-09-03 08:17:46 0.0001397889 245.0 (m) DEBRIS
RITE TARGET 1 SSO 2025-05-07 05:05:59 0.001479418 56.0 (m) PAYLOAD
MOLNIYA 3-13 HEO 2025-02-11 09:38:32 0.001292633 197.0 (m) PAYLOAD
FENGYUN 1C DEB SSO 2025-01-07 09:36:14 0.0003122889 364.0 (m) DEBRIS

Associated space launch

Military communications satellite

SL-8 R/B was lifted into orbit during the mission ‘Kosmos-3M | Strela-2M 3’, on board a Kosmos-3M space rocket.

The launch took place on April 23, 1971, 11:30 a.m. from 132/1 (132L).

For more information about the launch, click the button.

Launch to space Kosmos-3M | Strela-2M 3
Kosmos-3M | Strela-2M 3

Agency: N/A

Status: Launch Successful

Launch date: April 23, 1971, 11:30 a.m. UTC

Rocket: Kosmos-3M

Launch pad: 132/1 (132L)

Location: Plesetsk Cosmodrome, Russian Federation

...

Latest news about this satellite

There are no fresh news available about this satellite. Check back as we update our databases every day.


Newsletter sign-up

Weekly statistics, charts and insights to help you stay on top of the space industry.